{"data":{"norad_id":38741,"epoch":"2026-05-25T02:42:04.160160Z","epoch_age_seconds":72127,"freshness":"FRESH","line1":"1 38741U 12043B   26145.11254815 -.00000259  00000+0  00000+0 0  9993","line2":"2 38741   2.3701  81.3372 0002845   3.9600 125.3631  1.00271195 50540","mean_motion":1.00271195,"eccentricity":0.0002845,"inclination_deg":2.3701,"raan_deg":81.3372,"arg_perigee_deg":3.96,"mean_anomaly_deg":125.3631,"bstar":0,"rev_number":5054,"period_min":1436.105354085,"perigee_km":35774.76444712,"apogee_km":35798.756273718,"semimajor_km":42164.897360419,"source":"CELESTRAK","updated_at":"2026-05-25T13:38:13.913507Z"}}